Wind_Speed
43 40 40 37 35 35 34 33 33 31 30 28 28 28 27 27 27 26 25 25 25 25 26 27 24 22 19 17 16 19 20 18 15 16 16 20 28 22 17 18 11 11 12 11 9 7 4 4 5 3 2 1 2 0 1 1 2 3 3 2 3 3 3 3 3 4 3 2 3 2 3 7 4 1 1 2 5 4 4 5 3 4 6 2 5 15 29 30
44 43 41 40 36 34 34 33 33 32 30 29 29 28 27 27 27 27 26 26 26 25 26 27 25 22 20 18 17 19 19 17 14 15 22 27 28 24 18 19 15 10 10 12 13 11 7 4 5 4 3 2 1 1 0 1 2 3 3 3 4 4 4 4 3 4 3 4 4 3 4 6 5 4 2 2 1 2 5 4 4 5 6 6 11 22 29 29
41 43 43 41 38 35 34 33 33 32 31 30 29 29 29 28 27 27 27 27 26 26 27 27 26 23 20 18 17 19 18 12 9 13 27 30 26 26 22 19 18 14 10 12 15 13 9 6 7 5 3 1 2 1 0 1 1 2 4 3 6 5 4 4 4 6 5 6 7 4 3 4 4 4 2 4 5 3 4 2 1 2 2 5 10 19 26 26
39 41 43 42 40 37 35 34 34 33 31 30 30 30 29 29 28 27 27 27 27 26 27 27 26 24 21 19 19 20 14 4 6 14 29 33 28 28 25 22 20 18 13 10 12 11 7 6 7 4 3 2 2 1 1 3 2 2 4 5 5 5 4 5 5 6 5 5 7 5 3 3 3 3 3 6 6 3 5 6 6 7 9 9 8 15 22 23
40 39 42 42 41 39 36 35 34 33 32 30 30 30 30 30 30 29 27 26 26 27 28 27 26 25 23 21 23 22 13 1 6 16 30 34 32 30 28 25 21 19 17 11 9 8 5 5 6 4 2 2 2 2 3 5 3 2 4 4 5 5 5 6 5 5 4 4 4 5 5 3 2 2 4 8 6 5 6 7 9 10 12 13 13 16 18 19
41 38 40 41 41 40 37 35 34 34 34 31 30 29 30 30 30 30 27 26 26 26 28 28 27 26 25 24 27 25 14 4 4 12 25 31 33 32 29 27 23 19 17 15 11 8 5 4 5 3 1 2 4 4 4 5 4 3 4 3 5 5 5 5 4 4 3 6 5 5 4 3 3 1 4 7 6 7 7 8 10 12 16 20 19 17 15 15
42 38 38 40 40 40 38 36 35 34 35 33 30 29 29 28 29 30 28 27 25 26 27 28 28 27 25 24 24 17 9 7 2 4 15 27 34 33 31 29 26 21 18 18 13 7 5 5 5 5 3 2 4 5 5 5 4 5 5 3 6 7 6 5 5 5 4 7 6 4 3 4 5 3 2 4 7 8 7 6 10 15 19 20 16 15 16 18
41 40 37 38 40 40 38 37 35 34 35 34 31 29 29 28 29 29 29 28 25 25 25 27 29 26 25 22 15 5 6 9 2 4 7 23 33 34 33 29 27 25 22 21 17 11 6 7 7 6 5 4 4 6 5 5 4 6 6 4 4 5 6 5 4 5 5 6 3 5 4 5 7 4 2 5 9 7 7 5 7 12 15 15 14 14 15 16
40 41 38 37 39 39 39 38 36 35 34 34 33 30 29 28 28 28 28 29 26 24 23 26 27 25 26 19 9 3 10 19 10 7 2 20 33 36 35 31 29 27 24 22 20 16 9 6 7 6 5 5 5 6 6 7 4 7 8 5 3 4 5 5 5 5 5 4 4 5 5 6 4 2 2 7 9 7 4 5 7 11 12 12 13 14 15 14
41 41 40 38 37 38 39 37 36 36 35 34 32 30 30 28 27 28 28 29 28 25 23 25 27 27 26 15 7 6 10 22 18 7 1 19 31 35 35 34 33 30 25 21 20 18 11 9 9 5 3 4 4 4 6 7 5 7 8 7 7 5 4 5 7 7 4 3 5 7 6 6 3 2 4 5 8 6 4 5 7 10 13 14 12 13 17 17
40 43 44 40 37 38 38 37 35 36 36 34 31 28 29 28 27 27 27 29 29 26 23 24 27 28 24 13 8 7 2 15 20 6 5 20 31 36 36 35 34 33 27 19 20 21 16 14 13 6 1 3 3 2 4 6 4 6 9 7 7 3 1 2 5 6 4 2 5 7 3 5 3 2 4 4 4 4 6 7 7 9 11 13 13 12 14 17
39 42 45 43 40 39 38 36 35 36 36 34 32 29 27 28 27 27 26 27 28 27 25 25 28 27 21 8 9 8 1 13 19 8 10 22 32 37 36 35 34 34 30 20 19 23 19 15 15 8 2 3 2 2 4 5 4 3 6 5 4 1 2 4 4 4 4 3 5 6 2 6 6 7 6 5 4 4 6 7 8 10 9 10 11 10 11 17
40 40 44 44 42 40 38 37 35 36 37 36 34 30 28 28 27 28 27 26 27 27 25 26 30 28 18 5 10 13 6 12 18 10 16 25 28 29 29 31 31 31 30 25 22 25 20 14 16 10 3 2 2 2 0 1 4 3 4 4 1 0 4 6 3 2 5 3 5 6 2 7 9 10 8 7 7 6 7 8 8 9 8 8 9 9 10 15
42 39 42 45 43 40 39 39 37 33 34 36 35 32 30 28 27 27 27 26 27 26 25 27 32 27 15 3 6 15 12 13 16 14 23 28 24 22 22 26 26 24 24 22 21 22 20 14 11 6 1 2 2 2 3 4 1 3 2 2 3 3 4 6 4 5 6 3 5 7 5 9 7 10 11 9 8 8 8 9 8 8 7 7 7 9 9 12
43 41 41 43 43 42 41 40 38 33 30 31 33 32 30 27 25 25 26 26 26 26 24 25 27 18 7 3 4 16 18 14 16 18 26 30 25 20 20 24 21 19 19 15 15 16 17 12 7 3 2 1 1 0 1 3 2 2 3 3 3 4 4 5 5 8 8 3 4 7 4 8 6 10 11 7 6 8 10 10 9 9 8 8 7 9 9 10
43 43 41 42 42 42 42 40 39 36 31 30 30 29 28 25 23 24 24 25 24 25 21 17 19 11 3 3 6 16 16 13 19 21 24 30 28 22 23 24 17 16 16 11 13 14 14 11 3 2 2 1 3 3 3 1 2 2 5 4 3 5 3 3 4 8 9 3 2 6 5 4 5 8 8 4 6 8 9 10 10 10 9 9 8 8 8 8
43 42 41 42 43 43 42 41 40 39 35 32 30 28 26 25 25 25 23 23 22 22 17 11 14 7 1 3 5 11 11 13 23 24 25 27 24 25 24 17 11 13 13 9 12 12 9 7 2 1 2 2 3 4 3 7 7 4 3 4 3 5 5 3 2 7 8 4 5 9 9 7 5 7 7 4 4 7 8 10 10 10 9 9 7 7 8 8
43 42 42 43 45 44 43 43 42 40 38 35 32 28 27 28 28 25 23 23 20 17 11 5 10 5 3 5 4 7 12 16 24 25 26 23 20 25 21 10 9 14 11 5 7 6 2 2 2 2 3 4 5 7 9 9 8 6 5 4 2 3 6 7 4 5 8 6 7 8 9 12 11 9 10 7 2 6 9 10 9 9 10 9 7 7 8 10
45 44 43 44 46 46 44 44 44 41 39 37 34 30 27 25 23 20 22 23 14 9 6 5 9 4 1 8 6 8 15 21 23 21 25 22 20 24 16 8 10 12 9 4 4 4 2 2 3 5 7 9 11 13 11 5 7 8 5 5 4 4 6 6 4 4 9 7 7 9 9 13 15 12 12 11 6 6 7 7 7 7 8 8 7 8 9 10
46 45 45 45 46 46 45 46 45 44 42 39 36 27 18 15 12 9 12 14 9 3 2 7 12 2 5 4 8 14 17 20 16 14 25 27 23 22 10 6 8 6 8 8 6 3 4 5 7 11 14 14 14 14 10 4 7 8 6 5 7 6 5 4 4 4 7 7 7 10 11 14 16 14 12 12 8 7 8 7 7 8 8 8 9 10 11 11
46 46 45 45 46 45 44 46 45 46 45 44 39 18 8 12 9 9 10 8 9 3 5 5 11 3 3 5 13 18 13 9 5 9 25 28 24 20 7 7 10 6 8 9 5 2 4 8 13 17 16 13 12 12 9 5 7 8 7 6 6 7 5 4 5 4 3 5 5 8 11 14 16 14 12 10 7 10 12 10 10 11 10 9 10 12 12 10
44 44 45 46 47 44 43 44 43 46 45 45 35 11 10 15 8 15 16 5 6 2 8 3 8 3 3 7 17 21 11 5 5 8 18 22 19 15 7 9 13 11 9 8 6 5 5 10 18 18 12 9 9 10 9 6 6 6 5 5 5 5 2 4 6 4 1 4 4 6 9 12 14 15 13 9 8 11 12 11 12 13 12 11 12 13 13 11
43 44 45 46 47 45 44 43 44 45 40 38 28 13 18 19 12 22 17 5 4 1 5 3 5 4 5 5 13 19 11 8 9 9 17 18 12 11 10 11 14 11 10 11 11 10 8 15 20 13 9 10 9 8 9 6 4 5 5 5 5 4 3 4 5 4 3 3 2 4 6 8 9 11 12 10 10 11 10 10 11 11 12 15 14 12 12 13
45 45 45 47 48 45 44 42 41 37 33 34 27 19 24 21 23 29 13 5 4 2 0 3 1 4 5 4 11 14 8 6 6 9 18 18 10 9 11 13 14 11 11 17 17 14 13 11 9 12 12 15 12 9 10 8 6 6 5 7 5 6 8 6 3 2 4 2 1 1 7 8 7 10 12 9 8 11 11 11 11 11 13 14 13 12 12 13
47 48 47 49 47 47 46 36 31 32 29 27 21 20 26 23 29 30 11 4 2 1 1 2 0 5 6 6 9 8 4 2 3 8 16 19 15 10 8 9 9 11 15 20 17 14 13 5 11 15 14 13 12 10 13 11 8 7 8 10 8 8 8 5 4 2 2 5 2 2 5 8 5 10 14 10 7 10 11 11 13 14 13 12 12 13 13 12
49 49 49 50 46 50 42 20 23 34 25 17 19 26 28 26 32 27 9 5 1 1 4 5 3 8 10 6 6 6 3 3 1 6 13 17 16 9 7 7 3 9 16 15 10 6 7 7 12 16 12 11 11 10 13 13 9 9 9 9 7 8 8 6 6 4 4 6 4 2 6 8 3 7 11 8 8 11 10 10 13 14 13 12 12 14 14 13
47 48 52 50 47 50 31 11 25 32 16 13 26 31 28 30 32 18 5 2 3 3 6 4 2 9 11 7 10 9 5 5 5 6 13 15 12 2 5 10 5 8 10 7 6 4 9 12 12 14 14 12 12 11 14 15 10 7 6 10 6 6 7 5 6 4 3 2 4 1 2 7 8 6 7 6 7 10 10 10 12 13 13 14 14 15 14 14
44 47 52 49 50 51 33 24 31 23 16 24 32 32 29 31 25 9 4 3 2 5 6 4 3 7 7 7 12 6 2 6 7 7 13 16 11 2 4 13 10 10 10 8 10 7 11 17 15 17 15 11 14 14 13 15 11 5 8 12 7 6 6 4 5 2 2 3 5 4 2 4 10 5 5 7 9 12 12 12 14 14 14 14 15 16 14 14
43 44 47 50 52 46 34 36 33 20 26 34 33 34 33 26 14 5 3 5 1 3 4 5 6 5 5 6 10 4 2 3 3 4 8 10 8 2 2 8 9 12 11 10 11 5 5 12 14 15 12 12 13 9 11 14 9 4 8 9 5 6 5 4 5 3 3 1 8 7 5 4 10 4 5 5 9 12 12 10 13 14 14 14 13 14 13 11
45 43 44 49 44 35 31 32 29 26 34 37 34 37 31 16 7 4 5 5 2 1 3 6 7 8 10 8 7 7 5 3 1 5 6 4 5 3 0 2 4 6 7 8 11 4 1 2 7 9 9 9 7 8 12 14 9 6 7 8 7 5 5 4 3 4 2 6 10 10 11 8 10 5 8 7 6 9 9 8 11 13 13 12 10 11 11 10
46 44 46 47 38 33 28 20 24 34 40 40 38 35 22 7 2 5 6 3 3 2 4 8 9 11 14 13 7 8 8 4 4 9 7 3 5 5 2 3 3 2 2 4 8 6 4 1 4 6 9 7 8 8 8 10 12 9 5 6 4 1 2 2 1 3 3 10 10 12 14 12 11 7 6 7 6 8 9 10 12 13 11 10 9 9 9 9
44 42 47 45 36 33 26 22 34 43 44 42 32 19 11 4 3 4 3 3 3 4 5 8 11 12 15 15 10 10 9 5 6 10 11 8 6 6 7 7 5 4 2 3 6 6 6 5 4 6 7 10 11 7 3 5 11 8 6 7 6 3 3 5 4 4 8 9 5 10 14 11 14 12 5 6 6 7 9 9 11 11 9 10 9 8 8 6
41 41 44 39 32 30 28 33 42 43 45 42 22 6 6 6 6 5 4 3 3 3 7 9 11 14 18 16 11 11 10 6 7 9 10 11 9 10 12 9 7 5 2 4 5 4 4 5 7 6 5 11 14 10 5 7 11 11 10 11 10 7 6 9 8 5 9 8 3 4 9 7 13 11 7 10 10 10 11 10 11 11 10 10 8 7 7 6
41 42 41 36 30 26 32 41 45 45 43 31 13 6 8 6 5 7 6 4 2 1 8 12 12 13 16 14 11 12 10 7 10 11 8 9 9 10 11 9 9 5 4 4 3 4 5 5 8 9 6 11 17 16 15 14 13 14 12 10 10 8 6 8 8 7 8 3 1 2 5 7 8 4 4 9 9 9 9 9 9 9 8 8 7 7 8 7
43 41 37 33 28 26 37 46 47 48 37 15 7 9 9 7 5 5 6 4 2 2 6 11 13 12 11 8 8 11 8 5 10 11 9 11 9 10 10 9 12 9 4 5 2 3 4 5 6 9 5 11 19 15 13 12 9 8 7 8 10 8 5 3 3 6 4 0 2 4 4 5 5 5 5 5 6 7 9 8 10 12 10 7 7 8 8 8
39 35 31 28 27 32 43 48 48 46 29 10 6 8 7 6 4 4 6 4 4 8 11 10 10 9 8 5 5 10 6 2 8 9 6 10 10 11 11 7 12 13 8 8 3 2 4 4 3 8 5 11 19 14 13 13 9 6 8 10 8 5 6 4 2 1 4 3 5 3 6 6 3 9 11 8 8 8 8 9 11 14 12 8 8 8 8 8
29 25 21 20 27 37 44 48 48 38 20 8 8 6 3 2 2 4 6 4 5 11 12 8 7 7 7 5 6 12 8 2 7 8 4 7 8 10 11 5 9 15 12 9 3 1 4 2 1 9 10 10 10 11 15 14 7 6 10 10 5 3 2 3 2 1 3 5 5 5 13 10 3 7 8 10 14 11 9 11 10 10 10 8 9 9 9 9
23 17 12 12 27 38 42 48 45 25 9 8 10 6 2 2 3 3 5 5 6 9 10 6 5 7 8 8 7 11 11 6 8 8 6 6 5 9 13 6 7 15 13 10 5 1 4 3 3 7 11 4 1 6 12 9 2 2 7 9 6 3 5 4 4 4 4 8 6 6 12 9 9 10 3 8 16 14 12 13 9 8 7 7 9 9 10 9
20 11 5 6 23 33 39 43 32 14 6 8 10 7 2 2 2 2 4 6 5 7 8 3 3 6 8 9 9 10 12 10 9 8 7 6 4 9 15 9 8 15 14 11 7 3 5 6 4 3 4 1 1 7 10 7 3 3 1 7 4 4 7 7 6 6 6 9 8 6 8 7 10 11 7 8 12 13 14 12 10 10 9 8 9 8 8 8
10 5 3 5 21 31 34 28 15 8 7 7 7 5 2 3 3 0 1 5 4 3 5 3 4 7 8 9 9 9 10 10 9 8 6 7 5 7 11 10 9 13 15 14 9 3 4 5 6 1 2 2 3 6 10 13 11 6 5 9 9 5 3 4 7 5 4 7 7 7 9 9 6 6 9 11 11 12 13 11 12 13 11 10 9 8 8 8
3 4 2 5 23 33 27 13 4 5 5 3 3 3 3 4 3 1 4 3 4 1 2 5 5 7 9 9 8 7 8 8 9 7 5 7 7 5 7 9 11 13 13 12 9 5 4 4 7 4 2 5 5 2 4 8 10 12 12 12 14 11 6 6 9 4 2 5 5 5 10 11 5 5 9 12 11 12 13 13 13 12 10 9 8 9 10 9
4 5 1 7 26 33 20 5 1 4 3 4 4 3 4 4 4 2 2 3 3 2 3 4 2 4 6 7 8 8 8 7 9 8 6 8 9 7 8 11 13 14 13 10 11 9 4 3 5 5 3 5 5 2 2 5 7 10 10 8 11 11 8 10 11 6 4 5 3 2 8 8 3 7 9 11 12 12 12 12 10 8 8 8 8 10 9 8
4 5 6 10 21 23 13 3 2 3 2 3 3 3 4 4 4 4 0 2 2 2 3 2 1 2 2 3 6 9 10 7 9 11 8 9 10 7 8 12 12 14 12 9 10 7 4 3 4 3 2 2 3 4 5 5 4 7 7 4 7 11 12 10 7 5 6 8 6 4 8 8 4 6 8 7 8 8 7 7 8 7 6 7 9 9 8 8
4 4 6 8 9 8 5 4 4 5 5 4 3 3 3 3 4 5 3 2 2 2 3 2 2 1 2 2 3 9 12 7 8 11 8 8 8 4 8 13 12 12 10 8 10 9 5 5 5 4 2 2 2 3 5 4 3 4 7 7 7 12 14 6 1 2 6 11 13 9 10 11 4 4 6 5 4 6 7 7 8 8 7 7 8 7 7 7
5 4 3 5 6 4 1 2 4 7 9 9 7 6 4 3 1 4 5 4 3 3 4 2 2 3 4 3 3 2 6 3 5 9 5 4 4 2 6 14 14 11 9 8 11 11 7 6 7 8 8 7 8 7 5 4 3 3 6 11 11 13 16 10 5 6 9 12 14 10 11 11 1 2 6 4 4 7 8 6 6 7 8 8 7 7 7 6
3 3 2 3 3 3 1 1 2 6 8 9 8 5 6 5 1 1 5 4 2 3 4 1 2 4 3 4 4 2 1 2 2 6 6 5 4 2 3 11 14 14 10 7 10 8 3 4 8 10 9 9 6 3 1 3 4 4 7 14 16 16 17 14 9 9 10 11 11 10 13 14 8 6 6 5 5 8 8 7 6 7 8 8 8 7 6 6
2 2 3 3 1 1 2 1 3 5 4 6 5 3 6 9 4 2 2 1 3 4 3 1 3 3 4 5 4 2 1 3 3 3 5 4 2 1 1 3 10 15 11 8 11 8 2 5 11 12 13 13 6 3 4 5 5 6 9 13 15 15 16 15 12 12 11 9 10 11 13 17 18 12 7 7 8 8 8 9 9 8 8 7 5 4 5 7
2 1 1 2 2 2 2 2 4 5 4 4 3 3 8 9 7 4 1 0 3 4 3 1 3 4 6 7 5 3 3 2 1 2 3 2 2 2 0 1 4 9 8 7 10 7 3 7 13 14 17 19 13 9 7 7 7 9 11 14 15 14 15 16 16 16 13 10 12 13 13 17 21 16 10 10 10 8 9 9 6 5 5 4 4 5 7 8
1 2 1 2 2 2 3 4 5 6 6 4 3 3 6 8 7 4 1 2 2 1 3 4 2 3 5 5 5 5 4 3 2 2 2 2 3 3 3 2 2 2 5 8 8 4 3 8 11 13 16 19 18 15 10 9 9 10 12 15 16 16 16 16 17 18 15 12 11 13 14 16 19 19 11 9 8 8 7 4 4 5 5 6 7 7 8 9
2 2 1 3 3 2 3 4 6 6 4 3 3 2 4 7 7 3 1 4 5 2 3 4 5 4 5 5 6 5 7 5 4 3 4 3 2 2 3 3 1 2 3 5 5 3 3 6 9 11 12 14 16 16 13 12 12 12 13 15 15 17 16 15 16 15 13 13 14 18 18 14 18 18 8 6 8 8 7 8 8 8 7 6 7 8 9 10
2 1 1 4 3 2 3 2 4 6 3 2 2 2 2 6 6 4 2 2 5 5 4 7 8 5 4 5 5 4 6 6 6 6 8 7 3 3 3 2 2 3 3 3 2 2 3 4 5 8 7 9 11 14 15 13 12 13 14 14 15 16 16 16 17 17 16 17 18 19 15 14 19 14 4 8 10 9 12 14 12 10 9 8 11 13 12 11
3 1 2 4 3 2 2 2 3 4 3 1 1 2 3 4 4 4 3 2 2 4 5 9 8 4 3 5 7 7 8 9 7 7 8 7 3 4 4 3 4 4 3 3 1 0 2 1 2 6 7 9 11 14 15 13 11 12 13 16 19 19 19 19 18 20 21 17 14 15 15 18 20 10 5 10 12 10 12 13 11 13 14 14 17 18 14 10
Wind_Direction
211 210 212 211 208 206 206 207 208 208 206 206 204 202 202 203 207 203 197 197 196 196 197 199 198 200 203 197 192 192 191 193 199 191 194 212 213 219 215 203 192 169 180 192 197 200 185 197 206 180 128 113 11 338 320 307 93 82 113 140 205 224 219 210 205 202 164 190 238 240 160 139 152 225 282 19 45 70 69 37 15 15 28 111 164 154 157 163
212 207 209 210 208 205 204 205 206 208 206 205 203 201 199 198 203 205 200 198 197 196 195 197 197 198 200 194 189 189 188 195 202 201 212 219 218 221 218 206 195 172 178 191 197 197 182 190 188 151 108 115 295 245 253 287 111 113 131 162 213 204 224 240 211 202 165 168 201 221 188 149 157 175 134 129 173 111 97 23 10 44 35 70 123 142 153 162
215 208 207 208 206 203 202 204 205 206 205 203 202 200 198 195 198 202 200 197 196 195 193 195 196 195 199 191 185 188 182 192 214 218 219 220 221 221 215 206 199 188 186 194 201 201 198 192 165 141 115 141 238 199 130 276 202 169 135 181 227 196 226 266 222 212 213 171 162 201 193 139 175 174 137 156 169 172 163 177 85 111 154 124 132 145 154 164
217 212 208 205 205 203 201 202 203 204 204 202 200 198 198 196 197 201 199 194 194 195 192 193 192 192 196 188 187 184 165 186 232 218 219 217 219 220 213 204 199 199 199 200 207 206 199 173 150 124 126 186 248 134 166 229 208 174 160 193 216 176 208 250 231 222 215 168 157 167 130 131 200 155 138 146 145 227 232 206 189 184 175 162 160 157 160 168
215 215 210 206 205 203 200 200 201 202 202 200 198 197 198 198 198 199 198 194 191 194 193 190 190 189 191 190 188 172 144 237 220 211 223 218 215 217 211 203 196 200 203 209 216 198 175 149 127 82 92 179 190 128 210 224 155 165 221 202 194 169 201 235 234 227 189 132 126 142 140 159 170 118 157 149 151 224 227 207 198 179 168 169 170 167 168 173
214 214 213 207 205 203 200 199 199 200 201 199 198 197 199 199 198 198 198 195 190 194 195 191 189 186 191 193 186 170 156 214 172 196 223 218 214 213 208 203 195 197 204 213 215 188 160 122 120 117 125 179 186 184 220 221 153 195 248 212 205 201 211 223 201 215 170 130 147 164 171 141 117 239 190 161 182 217 212 193 182 176 173 172 168 168 174 180
214 211 211 208 205 204 200 199 198 199 199 199 198 198 201 199 198 198 198 195 190 193 196 194 190 186 190 189 182 178 190 218 126 172 216 213 212 208 205 203 196 198 204 204 198 176 152 131 153 167 169 199 199 207 217 207 187 208 240 227 217 217 221 216 182 191 163 162 184 161 132 149 169 198 166 190 224 225 225 202 172 174 171 165 166 174 183 186
214 208 209 208 205 204 201 199 197 197 198 197 197 199 200 198 196 196 196 194 189 190 193 194 190 185 186 177 165 185 235 208 188 344 221 209 209 201 200 198 195 199 199 197 190 175 158 149 173 169 181 222 196 200 198 184 203 216 223 224 211 220 223 212 184 180 165 171 172 127 151 202 194 173 158 225 245 238 226 212 165 161 159 163 175 185 188 191
213 205 204 207 204 203 202 200 197 196 197 196 196 198 199 199 196 195 196 195 191 189 191 191 186 183 183 171 146 193 225 208 215 336 242 199 202 196 193 189 190 196 193 195 191 179 172 167 189 172 178 212 190 192 186 181 217 220 214 211 203 227 214 184 179 189 175 167 147 148 203 248 227 208 243 228 238 238 180 160 156 150 159 175 184 188 191 194
213 208 204 205 203 201 201 200 198 195 195 195 195 195 198 198 195 194 195 196 195 191 190 188 181 180 179 160 154 208 223 209 214 309 254 190 192 188 187 185 186 189 187 189 186 180 179 182 186 160 149 192 195 197 183 186 208 208 207 220 223 221 203 174 187 198 178 176 173 167 215 266 284 248 248 242 238 227 156 155 165 159 173 187 188 190 192 196
213 214 208 205 205 203 200 198 197 196 194 194 191 192 195 196 195 194 195 197 196 192 191 187 181 180 174 155 187 209 216 204 210 258 205 186 186 184 185 185 184 184 181 182 188 188 187 188 172 125 49 207 202 218 207 195 182 194 199 225 247 228 210 179 186 199 175 197 178 147 220 288 321 240 219 248 253 196 178 189 182 179 188 193 193 192 192 199
208 211 207 202 204 204 199 197 197 197 195 191 190 189 192 195 193 193 194 196 195 193 188 185 185 181 168 166 213 206 151 196 200 212 194 188 188 186 185 186 186 185 181 177 189 193 191 187 164 146 231 201 171 232 235 203 157 170 184 199 264 284 262 214 186 202 177 191 168 120 348 284 251 235 213 225 235 173 192 205 195 200 202 196 197 195 195 204
203 205 205 200 200 203 199 196 197 199 195 190 188 188 191 193 191 192 192 192 193 193 188 186 187 179 166 182 217 206 214 191 189 192 188 188 187 185 185 186 187 188 187 183 187 192 195 187 164 167 214 160 192 234 283 171 151 157 172 166 170 280 265 227 192 177 167 188 161 129 290 249 236 249 238 232 226 201 217 224 211 212 209 202 202 200 204 207
202 202 204 199 198 201 201 196 195 196 194 189 187 186 189 190 189 191 191 192 192 191 192 190 184 175 171 197 200 200 207 190 189 188 183 183 179 177 184 186 186 190 193 191 188 190 195 187 159 158 216 170 243 283 21 3 121 154 179 174 158 183 257 232 188 151 163 220 155 134 251 248 244 258 250 240 214 200 224 234 224 219 214 211 208 206 212 210
201 199 203 202 197 199 201 197 193 191 191 188 185 185 186 187 188 187 189 190 189 191 195 193 182 165 167 243 181 191 195 186 192 193 182 179 171 168 176 178 180 187 190 192 192 192 190 181 155 155 213 209 247 298 14 343 352 146 193 216 179 189 259 251 198 169 174 227 153 141 240 265 262 250 247 241 196 191 219 230 226 224 219 216 214 212 216 217
199 197 201 201 197 198 199 196 192 187 186 186 185 186 181 178 178 177 182 183 184 189 188 187 184 162 152 203 165 181 186 181 187 191 185 180 175 170 168 166 164 171 176 178 181 181 175 168 159 159 154 172 187 137 89 321 277 243 207 206 186 175 215 262 230 205 189 164 185 200 230 267 274 255 260 261 195 191 217 232 228 226 225 218 217 216 218 221
197 197 198 199 198 198 196 193 189 184 183 184 183 183 176 169 169 169 171 174 175 178 176 174 176 171 299 175 153 173 176 175 179 181 184 184 180 169 160 155 143 144 147 147 162 165 162 166 166 126 138 172 173 124 146 215 218 225 208 199 204 173 182 209 234 230 204 169 203 220 235 241 253 269 283 297 199 189 214 232 231 229 231 225 221 223 223 223
199 196 195 197 197 197 196 192 187 183 181 182 181 177 171 166 161 155 153 155 152 153 167 179 161 169 260 189 175 169 165 168 172 176 181 185 184 172 161 143 123 126 123 127 161 163 154 155 134 152 180 184 174 177 201 211 194 194 191 181 196 172 191 202 205 212 193 203 220 211 237 248 252 264 271 286 235 196 218 227 232 233 235 235 229 227 227 226
199 196 193 194 194 194 194 191 188 183 178 178 178 167 159 156 149 145 145 145 142 140 165 194 176 184 227 182 175 148 162 167 167 172 174 178 178 168 158 135 135 136 136 156 191 182 141 95 123 172 199 199 196 203 206 185 166 179 169 164 173 181 215 215 219 209 177 195 232 212 228 246 249 251 254 264 250 227 241 242 245 243 240 241 233 230 228 226
196 194 192 193 193 193 193 191 189 183 176 172 166 152 146 150 141 151 152 152 176 164 117 185 185 164 39 150 151 136 158 168 166 169 171 175 163 148 148 144 145 155 162 170 184 184 158 165 192 203 206 202 200 206 205 158 142 153 150 181 191 197 233 228 231 237 179 189 228 216 228 242 246 248 244 250 249 248 256 251 250 246 241 239 233 234 230 228
196 192 191 193 192 191 192 192 188 181 175 168 159 147 150 162 153 166 155 164 193 126 30 195 186 172 59 148 151 137 141 161 175 180 172 171 155 144 163 166 157 187 186 163 137 137 182 191 210 213 206 199 199 203 200 168 145 156 172 191 203 209 234 241 243 263 185 198 232 220 233 244 248 251 246 241 237 244 244 235 240 240 240 241 239 242 239 238
195 192 189 190 189 189 189 188 186 180 174 166 160 155 170 171 165 160 149 140 192 90 23 164 174 176 116 151 158 145 128 144 175 186 173 168 158 157 175 170 172 185 174 141 129 162 186 210 217 210 193 184 192 196 195 185 159 168 172 172 207 211 243 277 269 294 210 198 242 238 240 247 250 252 249 238 229 240 239 228 234 237 239 243 239 242 243 246
192 189 185 187 186 184 184 184 184 179 170 163 164 167 171 174 156 149 140 89 169 132 26 135 162 156 140 160 168 153 145 167 174 181 176 169 163 164 166 173 183 178 160 164 174 176 188 220 217 192 164 178 184 182 185 188 181 182 167 174 206 170 160 251 265 276 254 193 208 254 265 256 254 262 258 239 228 245 248 235 237 235 237 242 240 240 238 239
189 185 182 183 182 179 179 182 179 174 168 166 170 166 163 162 149 146 128 52 163 187 153 167 164 176 164 157 174 167 154 168 183 180 175 171 159 162 169 177 182 174 175 187 186 188 203 216 187 162 177 187 183 177 179 194 213 208 185 188 194 159 181 217 218 248 285 277 191 330 298 269 231 244 256 241 223 242 247 241 245 242 239 245 249 249 240 236
186 184 181 179 180 177 175 174 170 169 171 171 167 157 153 152 153 152 122 48 164 318 255 177 145 207 189 143 160 167 133 149 207 186 180 177 163 157 175 182 184 180 184 190 189 201 214 173 136 172 191 181 182 189 188 194 205 221 215 195 174 159 179 187 152 142 285 275 263 124 273 273 212 219 243 240 223 236 241 236 241 243 243 245 250 252 245 240
185 183 181 179 179 174 170 165 164 167 171 176 164 156 155 152 158 159 121 46 230 234 181 172 157 186 185 165 135 121 144 192 166 171 185 185 172 161 176 174 188 191 183 186 193 206 212 176 164 182 179 169 189 204 198 191 196 224 213 175 156 156 165 159 147 163 210 245 285 160 226 270 269 226 241 244 238 242 245 244 245 246 246 242 242 245 243 241
185 182 180 179 176 171 166 151 159 163 168 181 165 157 157 155 159 160 108 39 244 163 154 164 177 176 173 168 147 139 182 172 107 163 192 192 183 164 182 172 168 195 178 171 204 196 178 186 184 180 172 173 195 207 198 187 198 228 157 143 161 148 148 155 149 182 226 265 306 232 194 274 276 245 226 227 246 254 252 254 252 247 245 243 242 243 240 238
185 182 178 176 175 173 166 151 156 165 178 173 161 157 160 161 161 148 111 180 199 134 147 166 173 161 147 151 160 164 240 153 142 180 188 190 186 120 189 186 177 185 174 171 202 196 179 189 184 177 177 185 202 205 187 178 200 227 134 149 170 124 121 122 116 146 359 14 274 242 107 277 268 245 198 213 236 245 243 243 248 246 242 240 241 243 240 238
183 180 177 174 174 174 167 159 161 169 171 164 157 159 159 155 149 98 141 198 121 113 155 159 156 142 126 147 170 190 351 149 166 150 161 188 192 123 195 195 183 180 177 193 206 181 173 200 188 177 182 196 201 180 159 174 198 200 133 125 96 78 79 79 95 86 44 329 248 223 159 238 268 237 176 222 240 237 238 240 245 248 245 242 241 245 244 242
181 179 177 173 170 165 159 161 163 160 162 161 158 156 147 133 121 116 194 198 92 106 155 157 168 156 152 158 175 192 177 155 148 126 134 186 189 176 150 127 156 172 172 204 212 201 5 206 172 180 199 196 165 132 160 176 162 127 110 89 71 53 40 53 69 67 59 261 245 206 176 206 264 239 177 204 212 204 221 240 248 250 250 249 247 246 246 243
180 178 176 175 172 161 151 153 158 159 162 160 154 148 133 103 139 174 192 167 95 157 158 157 164 152 160 168 169 185 179 165 169 155 148 164 178 181 173 113 104 132 153 198 207 224 264 185 141 198 203 160 129 147 169 157 143 132 109 108 116 65 25 56 45 86 206 252 240 196 177 188 240 242 180 207 203 184 205 223 237 245 250 253 250 246 245 244
178 175 174 175 173 164 157 154 157 160 160 153 146 142 134 135 207 185 172 140 148 195 167 155 161 156 166 176 173 176 177 176 181 171 164 169 178 183 192 186 163 168 206 193 184 203 235 224 192 206 186 153 151 156 107 131 157 150 129 144 157 179 202 199 202 188 217 248 243 182 169 184 237 243 213 234 242 223 221 223 235 242 247 251 248 245 244 242
174 171 173 173 168 163 160 155 154 157 154 147 140 140 156 173 194 177 160 176 204 198 160 156 166 164 166 174 179 175 176 181 177 177 176 174 179 192 200 192 162 154 164 165 168 172 221 233 207 195 170 167 170 161 153 173 177 175 167 170 179 182 198 209 206 208 223 242 296 172 168 202 249 251 228 230 236 233 227 223 233 237 238 245 247 252 260 256
170 168 172 173 169 164 158 155 155 154 148 142 139 156 170 187 180 157 164 200 239 140 149 155 159 164 170 178 179 170 175 190 179 178 183 180 186 197 201 189 166 145 102 136 174 170 195 232 202 190 178 178 185 184 182 176 180 190 181 176 187 183 196 209 202 214 227 241 316 188 182 208 234 257 232 226 237 248 242 235 241 244 239 244 263 274 276 271
166 164 165 166 168 166 159 156 155 152 145 135 146 166 180 187 169 162 171 184 201 132 133 148 150 158 178 184 174 175 185 193 181 184 188 187 197 197 194 191 179 170 140 164 193 162 199 267 214 193 182 182 193 195 177 165 179 196 173 183 203 192 182 194 206 208 198 334 223 204 231 228 232 295 286 249 263 267 262 265 264 260 249 234 255 268 266 266
158 156 156 157 162 166 163 158 154 151 146 137 161 179 188 178 172 179 165 158 174 150 135 145 153 157 175 176 173 190 198 143 170 189 195 188 201 202 196 192 182 182 178 177 179 128 183 273 217 184 198 200 200 193 170 167 178 181 179 195 200 169 155 161 243 184 116 223 225 189 252 265 305 286 261 239 258 266 262 260 253 256 253 232 239 254 255 255
142 143 145 151 161 165 165 160 155 152 148 149 178 189 171 168 185 153 142 139 156 150 142 151 163 160 167 166 178 187 182 139 175 190 194 183 198 202 196 197 184 188 188 181 197 142 168 273 246 180 204 221 209 195 187 186 171 165 191 191 141 78 95 123 211 81 97 235 233 199 235 240 226 261 246 214 229 244 249 248 244 252 254 238 236 242 246 248
123 124 116 141 162 165 165 161 156 153 149 163 183 189 140 169 192 143 138 136 137 152 154 154 163 168 171 170 179 183 177 179 185 188 191 185 197 189 182 185 187 190 188 176 193 189 157 237 273 186 200 221 97 195 203 205 191 157 192 177 137 163 200 169 193 199 189 227 239 220 232 232 215 231 232 197 212 217 227 238 246 250 245 242 242 239 245 251
113 113 74 139 161 165 166 163 156 148 150 170 184 194 168 137 154 144 155 143 127 152 163 157 151 167 177 175 171 175 183 191 182 182 196 191 201 192 179 173 183 189 179 165 182 178 156 209 251 187 185 150 109 203 201 197 225 332 181 169 162 207 201 187 201 209 202 220 237 232 228 235 224 215 196 199 206 208 219 233 244 243 231 231 239 239 244 246
110 111 34 143 155 161 163 159 149 146 164 173 179 184 163 121 131 76 110 137 129 151 169 172 156 160 174 180 174 172 186 196 187 188 204 188 193 207 186 174 175 180 174 170 179 155 129 203 231 196 103 137 189 207 201 197 194 186 177 182 191 206 193 193 208 199 183 211 228 235 237 245 238 192 184 198 201 202 211 220 233 239 232 228 237 244 246 245
97 107 13 157 151 151 150 142 134 156 163 155 146 159 156 130 121 28 352 77 119 120 141 144 153 163 168 174 178 175 178 191 191 192 209 199 201 220 201 185 174 168 168 173 182 170 139 189 210 195 154 197 212 213 219 224 209 194 190 190 194 194 175 192 208 188 157 211 201 212 246 255 241 181 184 195 199 201 202 205 219 232 230 230 238 239 240 243
98 115 103 161 153 147 138 120 144 137 141 157 146 135 139 124 109 129 336 30 92 92 77 92 118 153 160 172 176 168 168 185 192 187 200 210 211 213 200 190 178 167 167 178 188 179 136 132 197 209 208 215 232 268 293 295 267 226 209 196 198 195 181 198 209 195 189 211 166 177 257 268 228 187 189 193 199 204 202 200 210 228 225 225 238 243 244 246
85 102 103 136 154 151 139 134 140 111 120 154 123 97 121 119 111 136 138 26 85 81 67 83 134 140 152 169 160 164 172 183 194 193 196 209 219 222 194 185 179 171 170 180 183 166 105 112 188 224 277 305 303 302 305 323 292 241 220 201 199 199 199 205 208 188 191 206 198 216 254 262 240 199 203 208 207 209 214 207 214 237 241 233 239 245 244 239
94 84 83 107 130 136 137 159 152 136 137 134 122 112 100 85 117 136 138 125 134 116 101 130 174 144 144 127 133 177 181 180 199 198 193 203 221 231 180 181 183 179 182 185 172 167 169 172 182 200 231 278 270 268 277 282 274 245 219 210 209 204 203 200 100 167 203 210 206 212 241 249 244 175 201 233 223 215 229 220 210 227 241 239 240 240 235 232
106 80 66 83 68 44 71 174 146 137 140 140 138 131 109 76 88 143 138 139 158 143 127 149 157 118 126 112 47 179 183 171 193 191 184 200 226 290 183 185 187 191 203 194 170 173 180 169 180 195 203 213 213 217 235 217 205 240 222 213 213 202 197 195 191 198 207 210 205 208 231 242 272 131 204 224 201 209 231 235 220 227 234 233 230 227 225 224
104 88 116 98 43 24 359 309 124 129 141 142 135 137 134 116 55 145 133 143 195 144 112 114 133 105 109 125 86 60 219 20 99 171 185 192 202 304 213 187 191 202 207 178 160 164 158 168 192 201 211 226 224 211 185 122 143 183 207 212 214 206 199 201 204 205 207 209 209 214 229 242 246 220 217 226 205 207 221 221 215 223 228 225 220 218 222 229
79 86 128 121 91 91 55 17 120 126 148 149 134 145 139 128 134 158 115 177 188 146 102 96 156 148 151 146 122 113 164 32 38 162 183 190 196 290 283 174 196 205 198 165 165 167 139 193 195 196 215 229 226 177 151 137 163 197 207 217 221 214 207 207 212 212 205 209 221 216 220 240 246 228 198 211 215 208 212 208 202 208 214 214 214 216 227 239
73 88 112 115 128 139 124 140 138 127 133 130 102 126 137 134 140 146 96 301 172 147 106 121 202 186 166 155 130 122 124 59 349 193 168 188 186 149 158 324 220 204 186 174 188 180 170 206 195 192 213 221 216 205 170 154 183 196 203 219 227 225 217 214 220 220 210 214 229 221 212 234 249 241 208 203 210 206 212 212 204 218 222 195 190 207 220 228
75 98 35 48 91 137 125 122 123 122 123 115 92 120 138 139 143 155 152 104 154 178 106 126 200 186 162 148 110 127 165 153 189 220 174 192 190 146 169 244 261 194 173 190 205 186 187 216 196 192 215 222 217 213 193 182 200 201 202 213 219 226 226 223 226 228 228 235 248 249 240 239 250 249 224 199 208 209 211 211 205 226 228 199 198 213 222 226
95 116 52 66 73 76 86 97 118 125 113 87 102 126 135 138 148 175 149 125 158 191 76 116 160 153 157 151 115 154 196 164 139 174 159 165 241 191 184 212 194 140 165 195 209 186 204 219 187 183 218 230 220 214 205 203 211 214 215 213 212 220 225 229 234 235 237 242 247 252 253 251 255 255 227 180 206 207 211 227 225 222 218 206 216 226 223 225
106 181 125 102 89 59 77 94 114 129 123 66 112 147 129 152 171 168 109 111 148 146 125 146 158 146 151 162 153 186 198 156 143 171 169 169 206 198 194 224 154 136 159 183 182 174 205 219 169 163 209 231 215 208 210 211 216 224 224 216 213 217 216 219 225 224 222 226 232 242 248 251 255 255 187 178 204 197 208 223 227 232 226 217 228 234 225 219
69 62 64 96 97 44 84 94 85 126 165 167 146 150 141 173 180 137 98 18 80 130 149 154 149 121 115 169 202 205 188 176 182 188 175 165 160 162 174 182 152 139 160 163 115 75 199 225 177 167 200 224 206 197 204 210 218 226 220 208 209 214 214 216 220 222 223 220 222 232 235 240 249 246 186 215 215 196 210 216 213 225 229 227 233 237 233 223
Height
738 741 744 748 750 753 756 758 761 764 766 768 771 773 775 778 780 782 784 786 788 790 793 796 798 801 802 805 807 808 810 812 813 813 812 812 813 815 817 820 821 822 823 824 824 825 825 826 827 828 828 829 831 831 830 830 829 834 844 856 859 858 854 847 843 843 841 840 839 837 836 838 840 838 835 835 837 839 841 841 841 840 839 839 838 838 841 845
736 738 741 744 747 750 753 756 759 761 764 766 769 771 773 776 778 780 782 784 787 789 791 794 797 799 801 804 806 807 809 811 812 811 809 810 813 815 817 819 820 822 822 823 823 824 825 826 827 828 829 832 833 832 832 831 831 837 847 855 856 852 846 839 838 837 836 837 837 836 836 836 837 837 835 838 842 842 843 845 844 842 842 841 840 840 843 845
734 735 738 741 744 747 750 753 756 759 762 764 767 769 771 774 776 778 780 783 785 788 790 792 795 798 801 803 805 807 809 811 811 807 806 809 811 813 816 818 819 821 822 823 823 823 825 826 827 829 831 834 834 834 835 833 833 837 844 852 850 843 841 836 835 835 832 833 835 836 835 835 835 834 835 838 843 842 843 845 845 844 844 843 842 842 843 845
731 734 736 738 741 744 747 751 754 757 759 762 765 767 770 772 774 777 779 781 784 786 788 791 794 796 800 801 805 806 808 813 807 801 804 806 809 811 814 816 818 820 821 823 824 824 825 826 827 829 832 836 835 835 836 834 835 837 840 845 842 838 840 836 833 833 831 832 833 834 836 836 834 833 834 837 842 844 841 839 838 839 841 843 843 843 843 845
728 731 734 736 739 741 744 748 751 755 757 760 763 765 768 770 773 775 777 780 783 785 787 790 792 795 798 800 804 804 810 817 802 794 801 803 806 809 811 815 817 819 820 822 824 824 825 826 827 830 834 836 837 837 837 832 832 837 837 837 836 836 838 833 831 832 831 832 833 835 836 835 833 833 834 835 839 838 834 832 832 833 836 838 840 841 843 844
725 729 732 734 736 739 741 745 749 752 755 758 761 763 766 768 771 773 776 779 781 784 786 788 790 793 796 798 802 801 806 810 795 790 797 799 803 806 809 813 816 818 820 822 823 824 825 826 829 833 835 836 838 838 836 832 832 838 837 835 834 834 834 831 830 832 831 832 834 835 833 832 835 835 834 833 833 829 825 825 828 830 832 833 836 839 841 842
723 726 730 732 734 737 739 743 747 750 753 756 759 761 764 767 769 772 775 778 780 782 785 787 789 792 795 798 802 802 801 797 790 791 793 794 800 803 807 811 814 817 818 820 822 824 825 827 830 832 835 836 837 836 833 831 831 836 838 834 833 832 832 830 829 831 831 831 831 831 832 833 835 834 834 833 828 825 823 823 825 827 830 833 836 837 838 839
720 723 727 730 731 734 737 740 744 748 751 754 757 759 763 765 768 771 774 776 778 781 784 786 789 790 793 796 799 804 800 792 789 791 790 792 796 799 805 809 812 815 816 819 820 822 825 828 829 831 836 836 834 834 831 833 835 836 836 833 831 831 831 830 830 831 830 830 831 831 833 833 832 832 833 831 826 823 823 823 825 827 830 833 834 835 836 837
717 720 723 727 729 731 735 738 741 745 749 752 755 757 761 764 767 769 772 775 777 780 783 785 787 789 791 793 798 802 794 788 789 789 789 790 794 798 802 805 809 812 815 817 818 821 824 827 828 828 833 832 831 832 829 835 838 833 832 831 830 830 829 831 831 831 830 830 831 833 834 833 831 832 831 827 824 823 823 824 825 827 830 831 832 833 834 835
714 717 720 724 727 729 732 736 740 743 747 750 753 756 759 762 765 768 770 773 775 779 781 784 786 787 790 792 798 798 788 787 791 789 789 790 794 798 800 802 806 809 812 816 817 819 820 823 825 825 829 829 830 831 829 833 833 828 829 830 829 829 828 831 831 830 831 830 830 832 835 833 831 834 831 825 822 822 824 826 826 827 828 828 829 830 831 832
710 714 717 721 725 727 730 734 738 741 744 748 751 754 757 760 763 766 769 772 774 777 780 782 784 786 788 791 795 793 785 788 791 789 790 791 794 796 797 801 803 806 809 813 815 816 818 821 821 825 830 829 829 830 828 827 826 825 828 830 830 830 830 831 831 831 831 831 830 831 834 833 833 834 830 824 821 822 824 826 827 827 826 826 826 827 828 829
706 711 714 717 722 726 728 732 736 739 742 746 750 753 756 759 762 765 768 771 773 776 779 781 783 784 787 791 790 787 785 787 789 790 791 791 793 795 796 800 803 805 807 810 814 815 818 819 820 825 829 828 829 831 827 823 824 825 828 833 835 833 833 832 831 832 831 831 830 831 838 838 833 830 826 823 821 822 823 824 826 826 825 825 825 825 826 825
702 708 712 714 717 723 727 730 734 738 741 744 747 750 754 757 760 764 767 770 772 775 778 780 781 783 787 790 786 785 787 787 788 789 790 792 795 797 799 802 804 806 807 808 811 814 817 819 820 823 825 827 829 828 824 822 823 826 829 833 838 841 838 831 831 832 831 832 827 832 846 840 830 826 823 822 821 822 824 823 823 824 823 824 824 824 823 822
699 705 710 712 714 720 725 728 732 738 741 743 745 749 752 756 759 763 766 769 772 774 777 779 780 781 786 786 782 784 786 787 789 789 790 793 796 799 801 803 805 807 808 810 812 814 817 819 821 823 825 826 825 823 825 826 826 828 832 834 839 847 842 829 830 832 832 833 826 833 847 838 827 825 820 819 820 822 823 822 822 822 822 823 823 823 822 820
696 700 706 710 713 717 723 727 730 736 741 743 745 748 750 754 758 761 765 768 771 774 776 779 779 780 784 784 781 783 785 786 788 788 790 792 794 798 800 803 805 807 809 811 812 814 816 819 822 825 826 825 825 827 831 832 830 830 836 842 841 844 842 831 830 831 830 832 829 834 844 837 827 822 816 817 819 821 821 820 820 820 820 821 821 821 820 818
692 697 702 708 711 715 720 726 729 733 739 743 746 748 750 753 757 761 765 767 771 773 775 779 779 780 783 782 779 780 783 784 786 788 790 792 793 795 798 802 804 807 809 811 812 814 816 819 823 826 826 826 828 831 836 839 837 833 837 844 842 842 843 836 832 829 826 829 832 834 837 833 824 817 815 817 818 819 820 818 818 818 818 818 818 818 817 817
689 694 699 705 710 713 718 724 728 731 736 741 745 748 750 753 757 761 765 768 770 772 775 777 778 780 780 777 777 778 779 781 784 787 790 792 794 795 798 801 804 806 808 811 813 814 816 820 825 828 827 828 830 833 843 847 843 838 838 841 841 840 842 839 834 830 827 829 832 833 833 828 821 815 815 817 817 818 819 817 816 815 815 815 815 816 815 815
687 691 696 702 707 711 717 722 726 729 733 738 744 748 751 754 757 760 764 767 770 774 777 777 778 781 778 775 776 776 776 779 782 784 788 793 795 796 798 800 803 806 809 813 814 815 819 822 826 830 830 831 830 831 839 839 835 838 841 842 842 840 840 838 833 828 828 831 832 835 837 830 822 818 816 815 817 818 816 815 814 813 813 813 813 814 812 812
684 688 693 699 705 709 714 720 724 727 731 736 742 747 751 754 758 761 763 766 768 772 774 772 771 772 769 769 771 772 775 778 781 783 787 791 795 797 800 802 803 805 812 817 817 816 819 824 830 833 831 829 825 823 826 825 825 833 838 839 840 840 839 835 828 824 826 832 834 835 836 830 823 820 817 814 815 816 815 814 813 812 811 811 811 810 809 808
682 685 690 696 702 707 712 718 722 725 728 733 738 743 747 751 756 760 762 764 763 763 765 763 762 764 764 766 768 770 775 778 780 782 784 788 793 797 802 805 806 808 812 816 818 817 818 826 830 825 820 820 819 819 821 822 823 829 835 837 837 838 838 833 827 823 823 830 832 831 832 827 820 818 815 813 814 815 814 813 812 811 810 808 807 805 804 803
680 683 687 693 700 704 710 716 720 723 724 727 733 737 740 741 745 749 753 761 763 761 763 762 761 764 765 766 767 767 773 780 782 782 783 786 789 797 804 805 809 814 811 812 817 817 819 825 821 812 811 815 818 819 821 824 824 826 832 837 839 839 837 831 825 822 822 829 830 827 830 827 819 815 812 812 815 814 811 811 810 807 807 805 804 802 801 799
678 680 684 691 697 702 708 714 720 723 723 724 728 732 733 734 735 736 742 756 763 763 764 763 764 766 765 767 767 765 771 779 784 784 784 785 787 794 801 803 806 810 809 812 817 821 826 823 809 805 810 814 818 819 822 826 826 828 832 838 841 839 838 833 826 822 824 830 830 827 829 826 817 812 810 811 813 809 805 806 804 803 803 802 801 800 798 797
675 678 682 689 695 700 706 713 717 721 721 721 724 727 729 731 734 737 742 755 765 765 765 765 766 767 767 769 767 766 771 776 780 782 782 784 787 790 795 801 803 805 810 810 812 819 822 810 799 804 812 815 819 821 823 827 828 830 832 837 839 836 838 838 832 826 824 828 829 828 828 825 818 813 809 808 808 805 802 802 800 800 799 796 795 795 794 794
672 677 681 687 694 697 703 711 715 718 720 721 722 724 727 731 735 738 745 757 765 765 764 765 766 766 766 767 765 767 770 773 776 777 778 782 786 789 792 796 799 805 808 805 804 809 807 797 796 806 810 812 819 822 824 828 830 831 830 832 833 832 834 834 831 827 826 828 827 830 833 822 814 814 807 802 804 803 800 799 799 797 794 792 791 790 790 789
669 675 679 685 692 695 702 710 713 717 722 724 724 725 728 732 735 737 744 760 769 768 766 765 766 765 764 765 765 766 769 772 773 774 775 776 780 786 790 791 795 802 804 801 804 806 801 797 797 804 809 812 819 822 822 824 830 832 827 825 826 826 829 830 830 830 835 836 828 833 842 823 806 809 804 797 801 800 797 797 796 792 790 790 790 787 786 785
667 672 676 684 690 694 702 708 711 717 722 724 724 726 729 730 736 736 744 766 773 768 768 765 763 762 760 763 765 767 773 773 773 774 775 776 775 779 787 790 793 798 798 799 804 802 799 798 796 802 810 815 820 821 818 819 829 831 820 820 823 822 826 830 830 833 840 842 832 832 842 828 810 807 802 799 801 797 795 795 792 789 787 786 785 782 781 780
667 669 673 682 687 691 697 703 711 717 719 722 722 726 729 730 736 734 746 774 772 759 764 765 762 758 757 761 762 766 772 770 772 776 775 776 776 777 785 788 791 795 792 798 805 797 793 798 799 802 809 816 818 816 812 814 825 825 815 819 825 823 828 831 831 836 839 841 837 832 839 838 821 807 798 798 802 800 796 795 790 787 785 782 779 776 775 775
666 669 672 678 682 686 691 698 707 712 713 718 720 725 728 731 736 735 753 777 763 748 757 760 759 756 756 761 762 763 764 762 768 775 773 775 777 778 784 784 786 790 788 794 800 789 785 794 797 799 807 812 808 805 806 812 821 821 814 818 823 825 831 832 834 840 843 846 843 835 839 842 821 800 797 795 796 796 792 789 785 781 780 778 775 771 769 769
665 669 673 677 682 687 692 695 701 706 711 716 721 725 727 732 737 742 760 765 746 741 749 751 755 757 759 763 764 764 763 762 766 770 772 775 775 777 781 780 781 787 788 790 791 787 786 788 789 795 803 803 798 800 805 811 817 818 815 819 824 829 833 836 839 841 847 850 843 835 839 841 816 793 799 801 795 791 786 783 780 774 772 771 770 768 766 767
663 668 674 679 682 686 692 697 701 705 711 716 720 723 727 735 741 752 764 752 737 741 745 746 752 754 759 763 765 765 763 765 767 768 774 775 774 777 780 779 781 786 790 790 789 789 787 786 787 792 795 794 796 801 802 807 813 815 819 824 831 836 836 840 842 843 851 847 834 828 831 839 820 788 787 791 784 782 782 781 777 770 769 767 766 765 763 764
662 667 673 679 681 682 687 696 701 704 709 714 718 722 730 742 747 753 754 737 734 744 743 746 751 750 755 758 761 764 764 766 767 766 772 774 775 778 778 780 784 788 793 793 791 791 791 792 792 789 787 790 797 802 802 806 810 813 821 826 834 843 842 845 848 850 855 840 820 816 821 837 825 786 776 777 770 772 774 771 768 764 765 764 763 763 761 762
661 666 672 678 681 682 684 691 696 701 706 711 718 722 730 745 747 742 739 731 734 743 741 744 748 749 754 755 757 762 763 765 765 763 765 769 773 775 773 776 780 785 793 794 793 795 796 795 792 787 785 788 795 806 813 813 810 814 822 827 838 848 847 848 847 845 843 828 815 814 818 828 811 775 771 775 769 771 769 765 763 761 761 759 758 759 759 760
661 666 672 677 680 684 686 689 695 700 705 710 720 725 729 738 736 728 733 736 734 734 735 739 743 746 751 753 755 758 760 763 763 762 762 763 769 771 769 770 773 778 787 793 796 798 798 795 792 790 788 785 787 802 815 814 809 811 814 819 830 840 844 845 840 836 833 823 819 822 820 816 795 769 766 767 764 764 762 762 761 758 758 755 754 755 756 758
661 666 672 676 681 686 687 690 695 699 705 712 720 726 729 732 725 721 732 740 734 730 731 734 742 747 749 749 750 752 757 761 760 760 762 764 767 769 769 770 771 774 782 794 798 797 797 794 790 789 787 781 779 784 790 793 798 799 797 804 814 819 826 831 829 828 828 824 824 828 822 808 789 772 764 762 761 760 758 759 759 758 759 757 756 755 754 754
662 667 672 677 683 687 687 689 694 697 704 714 721 725 725 722 721 723 730 735 735 733 731 733 741 749 751 751 749 748 752 757 759 760 760 761 764 763 764 767 768 770 777 788 794 795 796 790 780 778 778 776 776 775 776 788 802 800 796 803 806 801 803 814 818 815 819 825 823 821 812 791 776 768 763 765 765 760 758 758 757 756 755 756 757 753 752 751
663 667 672 677 682 686 688 689 694 697 703 714 723 723 716 711 715 720 721 725 728 728 732 738 742 747 752 754 754 752 751 753 758 759 758 759 761 757 757 760 761 764 768 775 785 791 794 787 777 777 778 774 772 772 775 784 793 797 800 800 795 789 790 804 816 814 818 823 813 807 801 787 779 768 756 759 760 756 756 755 754 752 750 754 754 750 749 748
662 666 672 677 681 685 688 689 692 697 702 712 719 718 713 712 714 713 714 718 720 720 727 736 740 742 748 753 755 755 753 754 756 756 756 759 758 754 756 757 757 759 760 765 775 781 783 783 777 777 780 775 770 772 774 772 775 788 796 790 790 797 796 801 813 818 825 824 806 796 793 788 788 774 754 755 757 753 750 748 748 750 748 749 748 745 745 743
661 667 673 679 681 684 688 689 691 697 705 711 713 714 715 715 713 711 712 715 718 720 724 730 734 737 742 748 752 753 752 753 755 755 755 756 752 747 751 757 756 757 757 760 769 774 777 782 779 775 777 776 774 778 780 776 775 781 782 777 786 800 803 804 809 811 818 817 801 791 788 783 780 767 753 755 756 751 747 743 744 747 744 742 740 740 741 741
662 669 678 682 681 684 688 690 692 698 708 711 710 711 713 712 712 712 711 712 716 720 723 726 730 734 738 740 744 749 751 749 751 753 752 751 749 743 743 749 752 754 756 759 767 771 774 780 780 777 778 780 780 782 783 783 784 784 781 779 781 786 789 794 794 792 798 803 795 788 785 773 759 749 745 747 750 749 747 744 744 743 740 739 737 736 738 739
663 671 681 682 681 685 689 693 696 700 706 706 705 708 709 710 714 715 712 712 715 720 721 721 725 731 734 736 738 744 748 746 747 750 749 746 746 744 741 742 747 752 754 757 763 768 774 778 778 780 783 783 780 778 774 774 777 781 784 783 780 780 782 785 783 779 783 791 791 786 777 755 740 740 739 738 741 742 742 742 739 737 736 736 737 736 736 737
662 672 683 682 681 686 690 697 701 702 704 705 705 708 709 709 714 716 715 713 715 720 719 718 722 726 728 733 737 740 744 745 746 748 749 745 743 744 742 739 742 749 754 760 763 764 770 775 774 777 781 779 774 772 772 772 770 769 770 770 768 771 777 784 786 779 775 779 778 779 770 742 729 735 733 729 732 730 730 732 729 730 732 733 734 735 734 734
663 674 683 682 682 685 690 699 703 702 703 704 703 705 706 708 712 717 718 715 715 719 720 720 723 723 725 728 731 735 740 744 745 745 745 743 740 738 738 737 738 743 748 755 757 755 761 772 775 775 776 775 772 772 776 779 774 766 763 762 761 765 769 776 780 776 773 774 769 773 770 739 723 730 728 723 725 723 724 728 726 727 731 731 731 731 733 734
669 677 683 683 684 685 688 699 704 703 704 704 702 702 702 706 710 715 717 716 717 719 719 722 725 725 727 729 728 731 736 739 741 741 740 740 737 734 734 735 738 741 744 749 753 756 761 771 776 775 773 772 772 772 773 775 775 770 766 763 762 761 759 760 762 762 767 770 766 775 774 742 721 727 728 723 723 722 724 728 727 727 727 729 729 728 729 730
673 679 684 686 687 687 688 694 697 700 705 706 705 704 703 705 709 713 716 716 718 719 718 723 726 725 729 733 730 728 730 733 737 736 735 736 735 733 732 734 737 739 739 741 745 751 758 765 769 771 773 772 771 773 773 773 776 772 765 762 760 757 757 758 760 762 764 761 759 770 769 739 720 724 727 726 728 725 724 726 727 727 725 726 727 726 727 727
672 681 689 690 690 691 692 693 691 695 702 704 705 705 704 707 709 709 713 716 717 717 717 721 724 723 729 736 735 731 729 730 732 733 734 734 734 734 733 732 735 735 733 732 735 740 748 756 759 758 761 760 756 758 760 761 767 769 764 761 758 756 757 758 759 763 761 753 752 760 753 732 723 725 725 727 729 724 720 724 727 727 726 725 725 725 727 727
670 680 689 693 695 696 696 694 690 693 699 700 703 706 704 708 710 708 710 715 716 716 717 720 723 724 728 731 733 736 736 733 732 733 733 733 733 735 735 732 732 733 731 733 737 741 747 754 753 748 748 746 744 747 751 751 758 765 763 760 756 753 752 752 756 759 753 748 751 750 740 731 727 728 727 727 728 722 717 720 723 723 724 724 725 726 726 727
671 679 685 689 695 697 696 696 693 693 696 696 700 704 703 705 710 711 711 713 713 715 717 721 721 721 725 727 731 739 740 736 734 733 733 734 734 735 736 734 732 731 731 736 739 743 747 749 749 747 745 743 745 750 752 751 755 760 761 760 757 753 752 754 755 750 745 750 752 742 738 735 724 722 727 725 724 722 718 717 718 718 721 723 724 726 726 727
675 680 682 682 688 694 695 695 695 694 694 694 697 702 703 706 709 711 714 713 712 712 715 721 721 719 722 723 726 736 741 739 739 738 737 737 735 735 737 737 735 733 733 737 739 740 741 738 739 743 741 738 742 747 748 749 751 754 757 759 758 755 755 755 752 745 743 748 743 731 734 735 719 715 722 720 718 720 718 717 719 719 720 722 724 724 724 725
676 680 683 681 685 691 692 693 694 695 694 694 697 702 704 707 709 711 713 714 715 713 712 718 722 722 725 722 720 731 737 733 734 739 742 741 736 734 736 736 736 737 736 737 737 738 737 729 730 739 739 734 736 739 743 744 745 748 750 752 754 754 754 752 749 745 744 745 740 732 733 732 716 707 714 716 716 717 717 719 720 719 719 720 721 721 721 720
678 680 683 683 688 692 693 693 694 695 697 696 699 704 705 706 709 711 711 711 713 715 713 716 721 724 726 723 718 723 728 726 726 734 742 743 739 736 734 730 732 737 739 739 737 739 738 729 726 736 739 734 733 736 740 740 740 743 743 744 747 749 752 753 749 747 748 748 743 736 735 731 711 701 710 716 714 715 717 716 715 716 718 720 718 717 717 715
680 682 681 683 690 695 695 695 694 696 699 699 701 705 705 705 706 706 708 709 709 710 712 715 719 722 725 725 720 720 725 727 726 726 731 734 733 733 734 732 732 736 740 741 739 740 741 733 729 737 740 734 732 736 739 739 740 741 740 741 744 745 746 747 743 742 743 743 742 741 741 730 707 699 709 713 710 713 714 711 711 713 715 716 714 710 711 713
681 683 682 682 691 697 696 696 696 697 701 702 702 704 705 706 705 704 707 711 709 707 709 712 716 721 725 726 723 719 722 723 722 722 724 726 726 728 731 732 732 734 738 742 742 743 745 739 734 736 734 727 727 733 737 741 742 737 732 732 733 734 735 735 734 734 733 735 740 739 731 715 700 700 709 708 708 713 711 708 710 710 709 709 706 703 706 709